Powrót do katalogu

THORAD AGENA D DEB

AktywnyLEO
NORAD 4161·DEBRIS·🇺🇸 United States

Wystrzelony Sep 30, 1969 z Vandenberg Space Force Base

Loading…

Następne Przeloty (najbliższe 24 godziny)

TLE

ŚwieżeSource: Space-Track

Epoka: Sep 14, 2026, 07:04 UTC

1 04161U 69082AD  26257.29488191  .00000009  00000-0  41733-4 0  9992
2 04161  70.0215  19.7964 0060299 172.6097 187.5914 13.99422943907178

Śledź THORAD AGENA D DEB w czasie rzeczywistym z AllMySat

Download on the App Store